Weather in Vedenyapino

Russia / Penza Oblast     53°46′27″N   43°21′03″E
temp.,
°C
wind,
m/s
gust,
m/s
humid.,
%
clouds,
%
prec.,
mm/h
press.,
hPa
HPBL,
m
8 march, mon
mon800:00−2w111695100 1.5 9951131
03:00−6w6139387 1.7 997490
06:00−10wsw5118833 0.0 1000252
09:00−8sw6109462 0.1 1000387
12:00−4wsw81293100 0.6 10001094
15:00−4w91384100 1.2 10001353
18:00−8w5128253 0.2 1003305
21:00−11w489226 0.2 1007129
9 march, tue
tue900:00−14w33950 0.0 100822
03:00−15w23940 0.0 101020
06:00−15w239732 0.0 101121
09:00−12nw249564 0.1 1012202
12:00−10nw349395 0.0 1012367
15:00−9nw359097 0.1 1012578
18:00−12nw4796100 0.3 1014186
21:00−13nnw4996100 0.4 1016275
10 march, wed
wed1000:00−16nnw4897100 0.1 1017197
03:00−20nw4610099 0.2 1019115
06:00−22nw36100100 0.1 1021128
09:00−20nw4798100 0.1 1023274
12:00−18nw4692100 0.0 1024511
15:00−16nw5789100 0.1 1024717
18:00−19nnw3697100 0.1 1025127
21:00−23n339998 0.1 102827
11 march, thu
thu1100:00−25nnw331000 0.0 102825
03:00−26nnw331000 0.0 103023
06:00−27nw331000 0.0 103023
09:00−23wnw34970 0.0 1032129
12:00−17wnw36910 0.0 1031325
15:00−14wnw468821 0.0 1031474
18:00−17wnw349522 0.0 103144
21:00−20wnw349711 0.0 103235
12 march, fri
fri1200:00−21w33980 0.0 103324
03:00−22wsw22970 0.0 103320
06:00−22sw23940 0.0 103420
09:00−19ssw34870 0.0 1033125
12:00−14s46820 0.0 1032271
15:00−12s59820 0.0 1030372
18:00−15sse6128392 0.0 1028280
21:00−15sse7148097 0.0 1027344